Вернуться в каталог

STARLINK-37378

АктивенСвязьVLEO
NORAD 69255·PAYLOAD·🇺🇸 United States

Запущен May 30, 2026 с Cape Canaveral Space Force Station

Loading…

Ближайшие Пролёты (ближайшие 24 часа)

TLE

СвежийSource: CelesTrak SupGP

Эпоха: Sep 15, 2026, 03:34 UTC

1 69255C 26117T   26258.14909722 -.00047702  00000+0 -14096-2 0  2582
2 69255  53.1581 178.4473 0001287  84.1106 132.8457 15.34408592    16

Отслеживайте STARLINK-37378 в реальном времени с AllMySat

Download on the App Store